Location: Ahstedt
(52.2048°N, 10.1060°E)
Time: 23:58:10
(UTC+00:00)

Cosmos 540 Rocket - Pass Details

Date: 18 April 2026
Orbit: 734 x 748 km, 74.1° (Epoch: 15 May)

Event Time Altitude Azimuth Distance (km) Brightness Sun altitude
Exits shadow 02:18:39 12° 175° (S) 2,111 5.4 -16.2°
Maximum altitude 02:23:05 45° 106° (ESE) 1,021 4.4 -15.7°
Drops below altitude 10° 02:27:58 10° 35° (NE) 2,276 7.2 -15.1°
Sets 02:30:25 0° 29° (NNE) 3,205 8.2 -14.8°
